Find RCM 2

NORAD ID: 44323 Int'l Des: 2019-033 Owner: CSA Country: CA operational
LEOCIRCULARRETROGRADESSO

現在のビュー

3D地球を読み込み中...

RCM 2について

説明を読み込み中...

次回通過

Passes for default location (London). Set your location on the main map for personalized predictions.

高度履歴

Loading altitude history...

軌道要素

1 44323U 19033B 26146.57059633 .00000154 00000-0 20404-4 0 9993
2 44323 97.7594 154.4145 0001505 91.8380 268.3011 14.92588846378872
Epoch: May 26, 2026 • Age: 9 hours

現在のステータス

高度 595.3 km
速度 7.57 km/s
衛星直下点 41.72°N, 121.89°E
打ち上げ日 Jun 12, 2019
運用期間 6.9 years
タイプ other

技術仕様

分類 Payload
質量 1450.00 kg
乾燥質量 1400.00 kg
総質量 1450.00 kg
長さ 5.00 m
直径 1.40 m
スパン 7.00 m
形状 Box+2 panels
製造者 BALM/MAXAR
バスタイプ MAC-200
フェーズステータス In Orbit
所有者/国 CSA/CA

Most Searched